When you browse on this site, cookies collect data to enhance your experience and personalize the content and advertising you see.
Visit our Privacy Policy to learn more. By continuing to use the site, you agree to this use of cookies and data.
  • In Switzerland
  • List of Countries
  • For 7 days
  • Water Temperature
  • Weather Map
  • Weather Widgets
  • user-avatar
    Login

    Hourly Weather Salgotarjan

    Today, 3 June, Wednesday

    Time Temperature Precipitation Wind Pressure Humidity
    00:00 +7°C° 0 mm 0 mps 726 mmHg 88%
    01:00 +8°C° 0 mm 1 mps 725 mmHg 88%
    02:00 +7°C° 0 mm 1 mps 725 mmHg 89%
    03:00 +7°C° 0 mm 1 mps 724 mmHg 89%
    04:00 +6°C° 0 mm 0 mps 724 mmHg 90%
    05:00 +9°C° 0 mm 1 mps 724 mmHg 83%
    06:00 +11°C° 0 mm 1 mps 724 mmHg 77%
    07:00 +14°C° 0 mm 1 mps 724 mmHg 68%
    08:00 +15°C° 0 mm 1 mps 724 mmHg 62%
    09:00 +17°C° 0 mm 2 mps 724 mmHg 55%
    10:00 +19°C° 0 mm 2 mps 724 mmHg 49%
    11:00 +19°C° 0 mm 2 mps 724 mmHg 46%
    12:00 +20°C° 0 mm 2 mps 724 mmHg 44%
    13:00 +22°C° 0 mm 1 mps 723 mmHg 41%
    14:00 +20°C° 0 mm 2 mps 723 mmHg 46%
    15:00 +20°C° 0 mm 3 mps 723 mmHg 51%
    16:00 +19°C° 0 mm 3 mps 722 mmHg 56%
    17:00 +18°C° 0.2 mm 3 mps 722 mmHg 65%
    18:00 +16°C° 0.2 mm 2 mps 722 mmHg 73%
    19:00 +14°C° 0.2 mm 1 mps 722 mmHg 82%
    20:00 +13°C° 0 mm 1 mps 722 mmHg 84%
    21:00 +12°C° 0 mm 1 mps 722 mmHg 87%
    22:00 +11°C° 0 mm 1 mps 722 mmHg 89%
    23:00 +9°C° 0 mm 0 mps 722 mmHg 90%

    Tomorrow, 4 June, Thursday

    Time Temperature Precipitation Wind Pressure Humidity
    00:00 +9°C° 0 mm 0 mps 722 mmHg 91%
    01:00 +8°C° 0 mm 0 mps 722 mmHg 91%
    02:00 +8°C° 0 mm 0 mps 722 mmHg 92%
    03:00 +9°C° 0 mm 1 mps 721 mmHg 92%
    04:00 +9°C° 0 mm 1 mps 721 mmHg 92%
    05:00 +11°C° 0 mm 1 mps 721 mmHg 89%
    06:00 +12°C° 0 mm 1 mps 721 mmHg 86%
    07:00 +14°C° 0 mm 1 mps 721 mmHg 83%
    08:00 +16°C° 0 mm 2 mps 721 mmHg 78%
    09:00 +17°C° 0 mm 2 mps 721 mmHg 74%
    10:00 +19°C° 0 mm 3 mps 721 mmHg 70%
    11:00 +19°C° 0.1 mm 3 mps 721 mmHg 69%
    12:00 +20°C° 0.1 mm 3 mps 721 mmHg 69%
    13:00 +20°C° 0.1 mm 3 mps 720 mmHg 69%
    14:00 +20°C° 0.4 mm 3 mps 720 mmHg 73%
    15:00 +20°C° 0.4 mm 3 mps 720 mmHg 76%
    16:00 +20°C° 0.4 mm 3 mps 719 mmHg 80%
    17:00 +19°C° 0.6 mm 2 mps 719 mmHg 81%
    18:00 +18°C° 0.6 mm 2 mps 719 mmHg 82%
    19:00 +18°C° 0.6 mm 2 mps 718 mmHg 84%
    20:00 +17°C° 0 mm 2 mps 719 mmHg 85%
    21:00 +16°C° 0 mm 2 mps 719 mmHg 86%
    22:00 +14°C° 0 mm 3 mps 719 mmHg 88%
    23:00 +15°C° 0 mm 2 mps 719 mmHg 87%

    Day after tomorrow, 5 June, Friday

    Time Temperature Precipitation Wind Pressure Humidity
    00:00 +15°C° 0 mm 2 mps 718 mmHg 87%
    01:00 +15°C° 0 mm 2 mps 718 mmHg 86%
    02:00 +15°C° 0 mm 2 mps 718 mmHg 85%
    03:00 +15°C° 0 mm 2 mps 718 mmHg 85%
    04:00 +15°C° 0 mm 2 mps 718 mmHg 85%
    05:00 +16°C° 0.1 mm 3 mps 719 mmHg 82%
    06:00 +16°C° 0.1 mm 3 mps 719 mmHg 80%
    07:00 +17°C° 0.1 mm 4 mps 719 mmHg 78%
    08:00 +18°C° 0.2 mm 4 mps 719 mmHg 78%
    09:00 +18°C° 0.2 mm 4 mps 719 mmHg 78%
    10:00 +19°C° 0.2 mm 3 mps 719 mmHg 79%
    11:00 +19°C° 0.6 mm 4 mps 719 mmHg 82%
    12:00 +19°C° 0.6 mm 4 mps 719 mmHg 85%
    13:00 +19°C° 0.6 mm 4 mps 719 mmHg 88%
    14:00 +19°C° 1.4 mm 4 mps 720 mmHg 90%
    15:00 +18°C° 1.4 mm 3 mps 720 mmHg 92%
    16:00 +17°C° 1.4 mm 3 mps 720 mmHg 94%
    17:00 +17°C° 0.6 mm 3 mps 720 mmHg 94%
    18:00 +16°C° 0.6 mm 3 mps 720 mmHg 95%
    19:00 +16°C° 0.6 mm 3 mps 721 mmHg 95%
    20:00 +14°C° 0.1 mm 3 mps 721 mmHg 96%
    21:00 +14°C° 0.1 mm 2 mps 722 mmHg 96%
    22:00 +13°C° 0.1 mm 2 mps 723 mmHg 97%
    23:00 +12°C° 0 mm 2 mps 723 mmHg 97%

    6 June, Saturday

    Time Temperature Precipitation Wind Pressure Humidity
    00:00 +10°C° 0 mm 2 mps 723 mmHg 97%
    01:00 +10°C° 0 mm 2 mps 723 mmHg 96%
    02:00 +9°C° 0 mm 2 mps 724 mmHg 96%
    03:00 +9°C° 0 mm 2 mps 724 mmHg 95%
    04:00 +8°C° 0 mm 2 mps 725 mmHg 94%
    05:00 +11°C° 0 mm 1 mps 725 mmHg 90%
    06:00 +13°C° 0 mm 1 mps 726 mmHg 86%
    07:00 +15°C° 0 mm 1 mps 726 mmHg 82%
    08:00 +17°C° 0 mm 2 mps 727 mmHg 73%
    09:00 +18°C° 0 mm 2 mps 727 mmHg 65%
    10:00 +20°C° 0 mm 2 mps 728 mmHg 56%
    11:00 +21°C° 0 mm 2 mps 728 mmHg 54%
    12:00 +22°C° 0 mm 3 mps 728 mmHg 52%
    13:00 +24°C° 0 mm 3 mps 728 mmHg 50%
    14:00 +24°C° 0 mm 2 mps 727 mmHg 51%
    15:00 +24°C° 0 mm 2 mps 727 mmHg 51%
    16:00 +24°C° 0 mm 2 mps 727 mmHg 52%
    17:00 +22°C° 0 mm 1 mps 727 mmHg 59%
    18:00 +20°C° 0 mm 1 mps 727 mmHg 66%
    19:00 +17°C° 0 mm 0 mps 727 mmHg 73%
    20:00 +15°C° 0 mm 0 mps 727 mmHg 76%
    21:00 +14°C° 0 mm 0 mps 727 mmHg 79%
    22:00 +13°C° 0 mm 0 mps 727 mmHg 82%
    23:00 +13°C° 0 mm 0 mps 727 mmHg 83%

    7 June, Sunday

    Time Temperature Precipitation Wind Pressure Humidity
    00:00 +12°C° 0 mm 0 mps 727 mmHg 85%
    01:00 +13°C° 0 mm 1 mps 727 mmHg 86%
    02:00 +13°C° 0 mm 1 mps 727 mmHg 87%
    03:00 +12°C° 0 mm 0 mps 726 mmHg 87%
    04:00 +11°C° 0 mm 0 mps 726 mmHg 88%
    05:00 +13°C° 0 mm 0 mps 727 mmHg 82%
    06:00 +15°C° 0 mm 0 mps 727 mmHg 76%
    07:00 +18°C° 0 mm 0 mps 727 mmHg 70%
    08:00 +21°C° 0 mm 1 mps 727 mmHg 65%
    09:00 +23°C° 0 mm 1 mps 727 mmHg 60%
    10:00 +24°C° 0 mm 2 mps 727 mmHg 55%
    11:00 +25°C° 0 mm 2 mps 727 mmHg 53%
    12:00 +25°C° 0 mm 2 mps 727 mmHg 52%
    13:00 +25°C° 0 mm 2 mps 726 mmHg 50%
    14:00 +25°C° 0.2 mm 2 mps 726 mmHg 54%
    15:00 +25°C° 0.2 mm 2 mps 726 mmHg 57%
    16:00 +24°C° 0.2 mm 2 mps 726 mmHg 61%
    17:00 +23°C° 0.3 mm 2 mps 726 mmHg 69%
    18:00 +20°C° 0.3 mm 2 mps 725 mmHg 76%
    19:00 +20°C° 0.3 mm 1 mps 725 mmHg 84%
    20:00 +19°C° 0.5 mm 1 mps 726 mmHg 86%
    21:00 +18°C° 0.5 mm 1 mps 726 mmHg 88%
    22:00 +15°C° 0.5 mm 0 mps 726 mmHg 91%
    23:00 +14°C° 0.2 mm 0 mps 726 mmHg 91%

    8 June, Monday

    Time Temperature Precipitation Wind Pressure Humidity
    00:00 +14°C° 0.2 mm 0 mps 726 mmHg 92%
    01:00 +14°C° 0.2 mm 0 mps 726 mmHg 93%
    02:00 +13°C° 0 mm 0 mps 726 mmHg 93%
    03:00 +13°C° 0 mm 0 mps 726 mmHg 94%
    04:00 +13°C° 0 mm 0 mps 726 mmHg 95%
    05:00 +15°C° 0 mm 1 mps 726 mmHg 92%
    06:00 +18°C° 0 mm 1 mps 727 mmHg 90%
    07:00 +19°C° 0 mm 1 mps 727 mmHg 88%
    08:00 +20°C° 0.3 mm 1 mps 727 mmHg 85%
    09:00 +20°C° 0.3 mm 2 mps 727 mmHg 82%
    10:00 +20°C° 0.3 mm 3 mps 727 mmHg 79%
    11:00 +21°C° 0.3 mm 3 mps 727 mmHg 75%
    12:00 +22°C° 0.3 mm 3 mps 728 mmHg 71%
    13:00 +22°C° 0.3 mm 3 mps 728 mmHg 67%
    14:00 +22°C° 0.1 mm 4 mps 727 mmHg 68%
    15:00 +22°C° 0.1 mm 4 mps 727 mmHg 70%
    16:00 +21°C° 0.1 mm 4 mps 727 mmHg 71%
    17:00 +20°C° 0 mm 3 mps 727 mmHg 77%
    18:00 +18°C° 0 mm 3 mps 727 mmHg 82%
    19:00 +17°C° 0 mm 2 mps 727 mmHg 88%
    20:00 +16°C° 0 mm 2 mps 728 mmHg 91%
    21:00 +15°C° 0 mm 2 mps 728 mmHg 93%
    22:00 +13°C° 0 mm 1 mps 728 mmHg 96%
    23:00 +13°C° 0 mm 1 mps 728 mmHg 96%
    Show more